Zurück zum Katalog

COSMOS 926 DEB

AktivPO
NORAD 13475·DEBRIS·🇷🇺 Russia

Gestartet Jul 8, 1977 von Plesetsk Cosmodrome

Loading…

Nächste Überflüge (nächste 24 Stunden)

TLE

VeraltetSource: Space-Track

Epoche: Jan 26, 1994, 13:23 UTC

1 13475U 77062C   94026.55792019 -.00007384 +00000-0 -75706-2 0  9992
2 13475 082.9538 074.8498 0043319 029.3774 327.9200 13.76116993680406

Verfolge COSMOS 926 DEB in Echtzeit mit AllMySat

Download on the App Store